sat.trackr.live / text

‹ back to catalog

STARLINK-30343

NORAD 57753 · 2023-131X

PAYLOAD ACTIVE UNKNOWN

§ Identity

Operator
Country
US
Launch date
2023-09-01
Launch site
AFETR
Launch vehicle
Mass (kg)
RCS (m²)

Purposes: comms

External: N2YO · Heavens-Above · Gunter

§ Orbital elements

Epoch: 2026-09-20T10:26:18.100608Z

Period
94.27 min
Inclination
43.0024°
Eccentricity
0.0000843
Mean motion
15.27577300 rev/d
Perigee alt
482.5 km
Apogee alt
483.6 km
Semi-major
6,861.2 km
B*
1.3825e-6
RAAN
160.0056°
Arg perigee
279.7637°
Mean anomaly
80.3119°
Rev number
16,961

§ Raw data

STARLINK-303431 57753U 23131X   26263.43493172 -.00000224  00000+0  13825-5 0  99912 57753  43.0024 160.0056 0000843 279.7637  80.3119 15.27577300169618

JSON: /api/v1/satellites/57753 · /tle

For live sub-satellite position, see the globe view (requires WebGL).

§ Visibility from observer

Set your observer location to see the next 7 days of passes ≥ 10°. The values pass through the URL so the page stays shareable.

No JS? Fill the form by hand. The geolocation button needs JavaScript.